Terug naar catalogus

SCOUT B DEB

ActiefUNKNOWN
NORAD 2498·DEBRIS·🇺🇸 United States

Gelanceerd Jun 10, 1966 vanaf Wallops Flight Facility

Loading…

Volgende Passages (komende 24 uur)

TLE

VersSource: Space-Track

Epoch: Sep 14, 2026, 02:20 UTC

1 02498U 66052C   26257.09790587  .00000549  00000-0  52737-3 0  9994
2 02498  40.6266 268.9865 2066354  31.9155 339.1487 10.56488394486262

Volg SCOUT B DEB in realtime met AllMySat

Download on the App Store